Regional Weather Roundup
Issued by NWS

Home | Current Version | Previous Version | Text Only | Print | Product List | Glossary Off
Versions: 1 2 3 4 5 6 7 8 9 10 11 12 13 14 15 16 17 18 19 20 21 22 23 24 25 26 27 28 29 30 31 32 33 34 35 36 37 38 39 40 41 42 43 44 45 46 47 48 49 50

270
ASUS43 KDMX 160106
RWRIA

WEATHER ROUNDUP FOR IOWA
NATIONAL WEATHER SERVICE DES MOINES IA
700 PM CST SUN JAN 15 2017

NOTE: "FAIR" INDICATES FEW OR NO CLOUDS BELOW 12,000 FEET WITH NO
SIGNIFICANT WEATHER AND/OR OBSTRUCTIONS TO VISIBILITY.

* - THESE STATIONS ARE NOT NWS STATIONS...THUS NOT UNDER NWS
QUALITY CONTROL.  THEY ALSO DO NOT REPORT WEATHER SUCH
AS PRECIPITATION OR FOG.

IAZ001>003-012>014-020>022-031>034-043>046-160200-
   NORTHWEST IOWA

CITY           SKY/WX    TMP DP  RH WIND       PRES   REMARKS
CARROLL *      CLOUDY    32  28  86 E7        30.19F WCI  26
CHEROKEE *     MOCLDY    29  21  72 SE6       30.19S WCI  23
DENISON *      MIX PCPN  32  28  86 SE5       30.16F WCI  27
LE MARS *      CLOUDY    30  16  55 SE7       30.19S WCI  23
ORANGE CITY *  CLOUDY    28  16  59 CALM      30.18R
SHELDON *      CLOUDY    28  19  69 CALM      30.17R
SIOUX CITY     CLOUDY    32  21  64 E5        30.18S WCI  27
SPENCER        CLOUDY    24  19  81 SE7       30.20S WCI  16
STORM LAKE *   CLOUDY    27  21  80 SE7       30.19S WCI  19
$$

IAZ055>058-069>071-079>083-090>094-160200-
   SOUTHWEST IOWA

CITY           SKY/WX    TMP DP  RH WIND       PRES   REMARKS
ATLANTIC *     MIX PCPN  32  30  93 SE6       30.19F WCI  26
AUDUBON *      MIX PCPN  30  28  93 SE7       30.20S WCI  23
CLARINDA *     CLOUDY    32  32 100 E5        30.22F FOG     WCI  27
COUNCIL BLFS * CLOUDY    32  32 100 SE9       30.18F FOG     WCI  24
CRESTON *      MIX PCPN  30  30 100 SE9       30.20F WCI  22
HARLAN  *      MIX PCPN  32  32 100 SE6       30.22S WCI  26
LAMONI         FRZ RAIN  30  29  96 E6        30.20F FOG     WCI  24
RED OAK *      CLOUDY    32  32 100 SE7       30.20F FOG     WCI  26
SHENANDOAH *   CLOUDY    32  30  93 E7        30.20F FOG     WCI  26
$$

IAZ047>049-059>061-072>074-084-160200-
   CENTRAL IOWA

CITY           SKY/WX    TMP DP  RH WIND       PRES   REMARKS
AMES           CLOUDY    31  22  69 SE5       30.23F WCI  26
ANKENY *       CLOUDY    32  21  64 SE7       30.25S WCI  26
BOONE *        CLOUDY    30  25  80 SE7       30.21F WCI  23
CHARITON *     CLOUDY    30  28  93 SE6       30.22F FOG     WCI  24
DES MOINES     CLOUDY    32  24  72 SE7       30.23F WCI  26
GRINNELL*      CLOUDY    31  19  63 E6        30.25S WCI  25
KNOXVILLE *    MIX PCPN  30  27  86 E6        30.22F WCI  24
MARSHALLTOWN   CLOUDY    29  19  66 E6        30.24S WCI  23
NEWTON *       CLOUDY    32  19  59 SE8       30.23F WCI  25
PELLA *        MIX PCPN  31  25  78 E5        30.26S WCI  26
PERRY *        CLOUDY    32  27  80 SE6       30.21F WCI  26
$$

IAZ004>006-015-016-023>025-035-036-160200-
   NORTH CENTRAL IOWA

CITY           SKY/WX    TMP DP  RH WIND       PRES   REMARKS
ALGONA *       CLOUDY    27  21  80 S7        30.21F WCI  19
CLARION *      CLOUDY    27  25  93 SE6       30.23S WCI  20
ESTHERVILLE    CLOUDY    25  21  85 S8        30.20R WCI  16
FORT DODGE *   MOCLDY    27  19  74 CALM      30.23S
MASON CITY     CLOUDY    18  14  84 SE5       30.24F WCI  11
FOREST CITY *    N/A     19  16  86 E3        30.23S
WEBSTER CITY * CLOUDY    27  23  86 SE5       30.21S WCI  21
IOWA FALLS *     N/A     29  22  74 SE6       30.24S WCI  23
$$

IAZ007>011-017>019-026>030-037>042-050>054-066-160200-
   NORTHEAST IOWA

CITY           SKY/WX    TMP DP  RH WIND       PRES   REMARKS
CEDAR RAPIDS   PTCLDY    29  16  58 SE3       30.27S
CHARLES CITY * CLOUDY    23  19  86 E6        30.26S WCI  16
CLINTON *      CLOUDY    30  19  63 SE6       30.31S WCI  24
DECORAH *      CLOUDY    23  18  80 SE5       30.26S WCI  17
DUBUQUE        PTCLDY    25  19  78 SE5       30.28S WCI  19
MONTICELLO *   CLOUDY    28  18  64 SE6       30.28S WCI  22
OELWEIN *      CLOUDY    27  21  80 E7        30.27S WCI  19
WATERLOO       CLOUDY    26  17  68 E5        30.26S WCI  20
$$

IAZ064-065-067-068-078-160200-
   EAST CENTRAL IOWA

CITY           SKY/WX    TMP DP  RH WIND       PRES   REMARKS
DAVENPORT      PTCLDY    30  18  60 SE6       30.30S WCI  24
IOWA CITY      CLOUDY    32  13  45 E6        30.30F WCI  26
MUSCATINE *    CLOUDY    34  19  55 E3        30.30F
QUAD CITIES    CLOUDY    32  20  61 E6        30.30S WCI  26
$$

IAZ062-063-075>077-085>089-095>099-160200-
   SOUTHEAST IOWA

CITY           SKY/WX    TMP DP  RH WIND       PRES   REMARKS
BURLINGTON     CLOUDY    32  26  78 E5        30.28F WCI  27
FAIRFIELD *    CLOUDY    30  23  74 E8        30.26S WCI  23
FORT MADISON * CLOUDY    32  27  80 E5        30.28F HAZE    WCI  27
KEOKUK *       CLOUDY    32  30  93 E8        30.27F WCI  25
OSKALOOSA *    CLOUDY    30  26  87 E7        30.25F WCI  23
CENTERVILLE *  LGT RAIN  28  28 100 CALM      30.24S
OTTUMWA        CLOUDY    31  23  72 E8        30.24F WCI  23
WASHINGTON *   CLOUDY    30  25  80 E7        30.29S WCI  23
$$

ABBREVIATIONS USED IN REMARKS
   TC - TEMPERATURES IN CELSIUS
  WCI - WIND CHILL INDEX
   HX - HEAT INDEX
  VSB - VISIBILITY
$$





USA.gov is the U.S. government's official web portal to all federal, state and local government web resources and services.